Regional Weather Roundup
Issued by NWS

Home | Current Version | Previous Version | Graphics & Text | Print | Product List | Glossary On
Versions: 1 2 3 4 5 6 7 8 9 10 11 12 13 14 15 16 17 18 19 20 21 22 23 24 25 26 27 28 29 30 31 32 33 34 35 36 37 38 39 40 41 42 43 44 45 46 47 48 49 50
000
ASUS43 KMKX 301021
RWRWI

WISCONSIN REGIONAL WEATHER ROUNDUP
NATIONAL WEATHER SERVICE MILWAUKEE/SULLIVAN WI
500 AM CDT SAT JUL 30 2016

NOTE: "FAIR" INDICATES FEW OR NO CLOUDS BELOW 12,000 FEET WITH NO
SIGNIFICANT WEATHER AND/OR OBSTRUCTIONS TO VISIBILITY.

WIZ001-002-006>008-014>016-023>028-301100-
NORTHWEST WISCONSIN

CITY           SKY/WX    TMP DP  RH WIND       PRES   REMARKS
SUPERIOR ARPT  FOG       49  49 100 CALM      30.05S VSB 1/2
ASHLAND        PTCLDY    50  50 100 CALM      30.06R FOG
HAYWARD        CLEAR     53  51  93 CALM      30.06S
SIREN          NOT AVBL
CUMBERLAND     PTCLDY    55  54  94 CALM      30.06S
RICE LAKE      PTCLDY    57  55  94 CALM      30.07S
CHETEK         MOCLDY    61  59  95 E3        30.06S
LADYSMITH      CLEAR     57  56  95 CALM      30.09R
EAU CLAIRE     PTCLDY    60  60 100 CALM      30.04S FOG
MENOMONIE      PTCLDY    60  58  92 W3        30.05R
NEW RICHMOND   MOCLDY    60  59  96 E3        30.04S
OSCEOLA        CLOUDY    61  61 100 CALM      30.06S
$$

WIZ003>005-009-010-017-018-301100-
NORTH CENTRAL WISCONSIN

CITY           SKY/WX    TMP DP  RH WIND       PRES   REMARKS
MANITOWISH WTR MOCLDY    53  53 100 CALM      30.09S
ARBOR VITAE    CLEAR     57  55  95 CALM      30.09S
WOODRUFF       CLEAR     57  55  95 CALM      30.09S
RHINELANDER    CLOUDY    56  54  93 CALM      30.10R
EAGLE RIVER    PTCLDY    52  52 100 CALM      30.09S
LAND O LAKES   PTCLDY    51  50  98 CALM      30.10S
PHILLIPS       CLEAR     54  54 100 CALM      30.08S
TOMAHAWK       MOCLDY    47  46  97 CALM      30.09S
MEDFORD        CLOUDY    57  57 100 CALM      30.07S
MERRILL        CLEAR     52  52 100 CALM      30.08S
$$

WIZ029-030-035-036-043>047-301100-
CENTRAL WISCONSIN

CITY           SKY/WX    TMP DP  RH WIND       PRES   REMARKS
WAUSAU         CLOUDY    59  55  87 CALM      30.05R
MOSINEE        CLOUDY    59  55  88 NE8       30.06S
MARSHFIELD     MOCLDY    61  55  81 NE6       30.05R
STEVENS POINT  CLOUDY    58  56  91 NE5       30.05S
WAUPACA        CLOUDY    64  61  90 N3        30.04R
WAUTOMA        NOT AVBL
WISC RAPIDS    CLOUDY    63  56  78 NE5       30.05R
CAMP DOUGLAS   MOCLDY    60  60 100 W2        30.02S
$$

WIZ011>013-019>022-031-037>040-048>050-301100-
NORTHEAST WISCONSIN

CITY           SKY/WX    TMP DP  RH WIND       PRES   REMARKS
ANTIGO         MOCLDY    52  51  95 CALM      30.08S
SHAWANO        MOCLDY    62  57  82 NE8       30.05S
OCONTO         CLEAR    N/A N/A N/A NE3       30.04S
STURGEON BAY   CLOUDY    64  60  87 NE7       30.05R
GREEN BAY      CLEAR     59  59 100 N7        30.03R
MANITOWOC      CLOUDY    61  59  93 N5        30.02S
APPLETON       CLOUDY    61  55  82 N7        30.02S
CLINTONVILLE   CLOUDY    61  55  82 NE7       30.04S
OSHKOSH        CLOUDY    68  61  78 CALM      30.01S
$$

WIZ032>034-041-042-053>061-301100-
SOUTHWEST WISCONSIN

CITY           SKY/WX    TMP DP  RH WIND       PRES   REMARKS
LA CROSSE      CLOUDY    67  65  93 CALM      30.01S
SPARTA         CLOUDY    62  61  97 CALM      30.03S
VIROQUA        CLOUDY    64  63  97 CALM      30.03S
BOSCOBEL       CLOUDY    64  63  96 CALM      30.00S FOG
PRAIRIE DU CHI CLOUDY    66  63  90 CALM      30.00R
PLATTEVILLE    CLOUDY    65  65 100 NE7       29.99F
$$

WIZ056-057-062-063-064-067-068-301100-
SOUTH CENTRAL WISCONSIN

CITY           SKY/WX    TMP DP  RH WIND       PRES   REMARKS
REEDSBURG      CLOUDY    63  60  89 CALM      30.01S
BARABOO/DELLS  CLOUDY    62  59  90 CALM      30.02S
LONE ROCK      CLOUDY    65  61  87 CALM      30.01R
MINERAL POINT  CLOUDY    64  63  94 N6        30.00S
MADISON        MOCLDY    63  59  87 N5        29.99S
MIDDLETON      CLOUDY    64  61  90 CALM      30.00S
WATERTOWN      MOCLDY    64  64 100 CALM      29.99S
MONROE         MOCLDY    63  63 100 N6        29.98S
JANESVILLE     MOCLDY    66  64  94 CALM      29.97R
$$

WIZ051-052-058>065-066-070>072-301100-
SOUTHEAST WISCONSIN

CITY           SKY/WX    TMP DP  RH WIND       PRES   REMARKS
MILWAUKEE      MOCLDY    67  63  87 NE6       29.97S
WAUKESHA       CLOUDY    63  59  88 CALM      30.00S
MILWAUKEE/TIMM CLEAR     64  55  72 N3        29.99S
RACINE         CLOUDY    67  62  84 E6        29.98S
BURLINGTON     CLOUDY    64  63  97 NE3       29.97S
KENOSHA        CLOUDY    66  62  87 NE6       29.97S
FOND DU LAC    CLOUDY    67  61  81 NE6       30.01S
SHEBOYGAN      CLEAR     61  58  90 N3        30.01S
WEST BEND      MOCLDY    61  59  94 NE5       30.00S
JUNEAU         CLOUDY    63  61  93 N3        30.02S
$$

LSZ147-162-301100-
LAKE SUPERIOR

STATION/POSITION TIME  TEMP    WIND        PRES    WAVE
                       AIR SEA DIR/SP/G            HT/PER
                 (UTC) (F)     (DEG/KT/KT) (MB)    (FT/S)
W MID LAKE BUOY  0950   62 62   70/  4/  6 1017.3R   0
DEVILS ISLAND    1000   64      70/  9/ 10 1017.4S
PORT WING        0900   55     130/  2/  4 1017.6S
SAXON HARBOR     0900   57     170/  2/  2 1017.3S
$$

LMZ867-665-643>646-301100-
LAKE MICHIGAN

STATION/POSITION TIME  TEMP    WIND        PRES    WAVE
                       AIR SEA DIR/SP/G            HT/PER
                 (UTC) (F)     (DEG/KT/KT) (MB)    (FT/S)
CHAMBERS ISLAND  0900   69      60/  6/  8 1017.3S
S GREEN BAY BUOY 0800   68 70   70/  8/ 12 1016.1
N MID LAKE BUOY  0950   69 69   80/  8/ 10 1017.2R   1/ 3
NORTHPORT PIER   0900   70     100/  7/ 10 1017.3S
SISTER BAY       0921   64     120/  3/  6   N/A
ALGOMA LAKESHORE 0913             CALM       N/A
KEWAUNEE LAKESHO 1000   66      80/  3/  5 1016.2S
SHEBOYGAN LAKESH 1000   69     100/  7/  8 1016.1R
PORT WASHINGTON  0900   67      70/  4/  5 1016.3F
ATWATER BUOY     1000   64 60  320/  2/  6 1016.8R
MILWAUKEE LAKESH 1010   66      20/  3/  3   N/A
S MID LAKE BUOY  0950   67 73   80/ 21/ 25 1013.3F   4/ 5
KENOSHA   LAKESH 1000   70      70/ 12/ 14 1014.2S
$$

TC  - TEMPERATURE IN CELSIUS
VSB - VISIBILITY IN STATUTE MILES
WCI - WIND CHILL INDEX
HX  - HEAT INDEX





USA.gov is the U.S. government's official web portal to all federal, state and local government web resources and services.